Content
SEND FEEDBACK

Daily
Averages
Monthly
Summary
India

AHMEDABAD, INDIA


Home > Asia > India
Elevation: 180 feet     Latitude: 23 04N     Longitude: 072 38E

WEATHER
 
SELECT A DAY
Number of Records: 210,268;   Date Range: 7/1/96 - 7/23/14
 
SHARE

PRINT THIS DATA

[ ← Previous Day ]
WEATHER ALMANAC - APRIL 30, 2013
[ Next Day → ]
[ °C ]   °F
Weather ElementAverageHighLow
Temperature95.1 °F109.4 °F (4:10 pm)82.4 °F (5:40 am)
Dewpoint64.1 °F71.6 °F (9:10 am)57.2 °F (7:40 pm)
Humidity37 %62 % (5:40 am)13 % (5:30 pm)
Barometer29.73 in29.80 in (7:10 am)29.62 in (5:10 pm)
Wind Speed6.5 mph11.5 mph (4:10 pm)
Weather ElementAverage
Visibility2.9 mi
Wind DirectionWNW (290.6 °)

Weather ElementTotal
Precipitation---
Cooling Degree Days30.9 (Base 65)
Growing Degree Days45.9 (Base 50)
Averaged from 50 records on April 30, 2013
WEATHER CONDITIONS BREAKOUT
WIND DIRECTION BREAKOUT
WEATHER BY HOUR - APRIL 30, 2013
[ °C ]   °F
Local TimeTemperatureDewpointHumidityBarometerVisibilityWind DirectionWind SpeedGust SpeedPrecipitationEventsConditions
12:40 AM91.4 °F60.8 °F36 %29.74 in2.5 miWNW (300°)6.9 mphSmoke
1:10 AM89.6 °F62.6 °F40 %29.74 in2.5 miWNW (290°)5.8 mphSmoke
1:40 AM89.6 °F62.6 °F40 %29.74 in2.5 miWest (280°)6.9 mphSmoke
2:10 AM87.8 °F62.6 °F43 %29.74 in2.5 miWest (280°)6.9 mphSmoke
2:30 AM87.0 °F64.0 °F37 %29.74 in2.0 miNW (320°)3.5 mph
2:40 AM87.8 °F64.4 °F46 %29.74 in2.5 miWNW (290°)8.1 mphSmoke
3:10 AM87.8 °F66.2 °F49 %29.74 in2.5 miWNW (300°)9.2 mphSmoke
3:40 AM86.0 °F64.4 °F48 %29.74 in2.5 miWest (280°)6.9 mphSmoke
5:10 AM84.2 °F68.0 °F58 %29.74 in2.5 miNW (310°)6.9 mphHaze
5:30 AM84.0 °F68.0 °F50 %29.74 in2.0 miNW (320°)3.5 mphSmoke
5:40 AM82.4 °F68.0 °F62 %29.74 in2.5 miWest (280°)9.2 mphHaze
6:10 AM82.4 °F68.0 °F62 %29.77 in2.5 miWNW (290°)8.1 mphHaze
6:40 AM82.4 °F68.0 °F62 %29.77 in2.2 miWNW (290°)5.8 mphHaze
7:10 AM82.4 °F68.0 °F62 %29.80 in2.2 miWest (280°)5.8 mphHaze
7:40 AM84.2 °F69.8 °F62 %29.80 inNorthSmoke
8:10 AM86.0 °F69.8 °F58 %29.80 in3.1 miWNW (290°)8.1 mphSmoke
8:30 AM87.0 °F71.0 °F49 %29.79 in2.0 miWNW (290°)6.9 mphClear
8:40 AM87.8 °F69.8 °F55 %29.80 in3.1 miWNW (300°)9.2 mphSmoke
9:10 AM89.6 °F71.6 °F55 %29.80 in3.1 miWNW (300°)8.1 mphSmoke
10:10 AM93.2 °F71.6 °F49 %29.80 in3.7 miWNW (300°)5.8 mph
10:40 AM95.0 °F69.8 °F44 %29.80 in3.7 miNW (310°)5.8 mph
11:10 AM96.8 °F69.8 °F41 %29.77 in3.7 miWNW (290°)6.9 mph
11:30 AM98.0 °F70.0 °F31 %29.78 in2.0 miNW (320°)4.6 mph
11:40 AM98.6 °F69.8 °F39 %29.77 in3.7 miNW (320°)6.9 mph
12:10 PM98.6 °F69.8 °F39 %29.77 in3.7 miWNW (300°)6.9 mph
12:40 PM100.4 °F68.0 °F35 %29.74 in3.7 miWNW (300°)3.5 mph
1:10 PM102.2 °F66.2 °F31 %29.74 in3.7 miWNW (300°)4.6 mph
1:40 PM105.8 °F64.4 °F26 %29.71 in3.7 miWNW (300°)9.2 mph
2:10 PM107.6 °F60.8 °F22 %29.71 in3.7 miWest (270°)8.1 mph
2:30 PM104.0 °F61.0 °F16 %29.71 in2.0 miNW (320°)4.6 mphClear
2:40 PM107.6 °F64.4 °F25 %29.68 in3.7 miWest (260°)10.4 mph
3:10 PM107.6 °F62.6 °F23 %29.68 in3.7 miWNW (300°)10.4 mphPartly Cloudy
3:40 PM107.6 °F62.6 °F23 %29.65 in3.7 miNW (320°)9.2 mphPartly Cloudy
4:10 PM109.4 °F59.0 °F19 %29.65 in3.7 miWest (260°)11.5 mphPartly Cloudy
4:40 PM109.4 °F59.0 °F19 %29.65 in3.7 miWNW (300°)10.4 mphPartly Cloudy
5:10 PM109.4 °F59.0 °F19 %29.62 in3.7 miWest (280°)11.5 mphPartly Cloudy
5:30 PM106.0 °F59.0 °F13 %29.65 in2.0 miNW (320°)4.6 mphScattered Clouds
6:10 PM107.6 °F59.0 °F20 %29.65 in3.7 miWNW (300°)9.2 mphPartly Cloudy
6:40 PM105.8 °F59.0 °F22 %29.65 in3.7 miWest (270°)9.2 mphPartly Cloudy
7:40 PM102.2 °F57.2 °F22 %29.68 in2.5 miWest (270°)3.5 mphSmoke
8:10 PM100.4 °F59.0 °F25 %29.68 in2.5 miWest (280°)4.6 mphSmoke
8:30 PM96.0 °F62.0 °F23 %29.72 in2.0 miNW (320°)3.5 mph
8:40 PM96.8 °F60.8 °F30 %29.71 in2.5 miWest (270°)3.5 mphSmoke
9:10 PM95.0 °F62.6 °F34 %29.71 in2.5 miWest (270°)3.5 mphSmoke
9:40 PM98.6 °F57.2 °F25 %29.71 in2.5 miWest (270°)4.6 mphSmoke
10:10 PM95.0 °F57.2 °F28 %29.74 in2.5 miNW (310°)3.5 mphSmoke
10:40 PM93.2 °F57.2 °F30 %29.74 in2.5 miNNW (330°)3.5 mphSmoke
11:10 PM91.4 °F59.0 °F34 %29.74 in2.5 miNNW (330°)3.5 mphSmoke
11:30 PM88.0 °F62.0 °F32 %29.74 in2.0 miNW (320°)3.5 mph
11:40 PM89.6 °F60.8 °F38 %29.71 in2.5 miNNW (330°)3.5 mphSmoke
Hourly data recorded from VAAH, located miles away from Ahmedabad, India







STORIES FROM OUR PARTNERS